Location: Newark
(27.2452°N, 107.0032°W)
Time: 13:36:07
(UTC+00:00)

Hubble Space Telescope - Pass Details

Date: 20 December 2019
Orbit: 536 x 540 km, 28.5° (Epoch: 24 January)

Event Time Altitude Azimuth Distance (km) Brightness Sun altitude
Exits shadow 12:11:52 72° 335° (NNW) 563 0.6 -21.8°
Maximum altitude 12:12:03 74° 2° (N) 558 0.7 -21.7°
Drops below altitude 10° 12:16:11 10° 88° (E) 1,785 4.5 -20.9°
Sets 12:18:27 0° 90° (E) 2,676 5.7 -20.4°
